SL-16 DEB, 22357

Orbit data source: Space-Track

SL-16 DEB, 22357 is space debris in LEO originally from a launch on Fri, 25 Dec 1992 UTC launched from the Tyuratam Missile And Space Complex (TTMTR). Debris objects in space refer to the collection of defunct objects orbiting the Earth. Examples of debris include non-operational satellites, rocket bodies, and fragments generated from explosions, collisions, or faulty payload assembly.

Loading next visibility...
Identifier
22357, 1992-093AW
Orbit
LEO
Country
Flag of CISCIS
Related business
Manufacturer
Unknown
Mission
Spacecraft
Bus & Motor
Unknown
Mass
Unknown
Launch date (UTC)
1992-12-25 (33 years ago)
Launch vehicle
Unknown
Launch site
Tyuratam Missile And Space Complex (TTMTR)
Object type
Payload
Rocket body
Debris
Shape & HBR
Unknown shape, 0.1 m
Radar Cross Section
Small (<0.1 m²)

Expand to show TLE details & history
Last TLE update: 1 day ago

TLE from 1 day ago
0 SL-16 DEB
1 22357U 92093AW  25349.34094023  .00227613  00000-0  21283-2 0  9999
2 22357  70.8327 325.7845 0010200 185.4833 174.6258 15.66356948742691
Epoch: 2025-12-15T08:10Z
TLE epoch observation values (Epoch: 2025-12-15T08:10:57.235Z)
Latitude
0.00001°
Longitude
118.80513°
Altitude
378.749 km
Speed
7.679 km/s
True Right ascension
21h 43m 08s
True Declination
0° 00' 00"
Sunlit
Object was in daylight at epoch
Visualization orbit readout
Latitude
Unknown
Longitude
Unknown
Altitude
Unknown
Speed
Unknown
Apparent Right ascension
Unknown
Apparent Declination
Unknown
Sunlit
N/A
Visualization observer readout
Local Sidereal Time
18:32:47
Azimuth
Unknown
Elevation
Unknown
Doppler factor
Unknown
Orbital elements
Apogee altitude
374.016 km
Perigee altitude
360.255 km
Semi-major axis
6,745.273 km
Eccentricity
0.00102
Inclination
70.8327°
RAAN
325.7845°
Arg. of periapsis
185.4833°
True anomaly
174.63673°
Mean anomaly
174.6258°
Eccentric anomaly
174.63127°
Mean motion
3.91781 °/min
Orbital period
91.89 mins
BSTAR
0.0021283
Loading maneuver chart data...
Computing Atmospheric mass density...
Loading historical data...
Loading historical data...
Loading historical data...
Loading historical data...
Loading historical data...
Loading historical data...
Loading historical data...

Documentation

Showing up to 5 results
|